TimeAKST,TemperatureF,Dew PointF,Humidity,Sea Level PressureIn,VisibilityMPH,Wind Direction,Wind SpeedMPH,Gust SpeedMPH,PrecipitationIn,Events,Conditions,WindDirDegrees,DateUTC
12:03 AM,3.2,1.4,92,29.64,0.5,Calm,Calm,-,N/A,Fog,Light Freezing Fog,0,2012-12-26 09:03:00
12:18 AM,3.2,-0.4,85,29.63,1.0,NE,4.6,-,N/A,,Overcast,40,2012-12-26 09:18:00
12:29 AM,3.2,1.4,92,29.63,0.8,NNE,3.5,-,0.00,Snow,Light Snow,20,2012-12-26 09:29:00
12:43 AM,6.8,3.2,85,29.63,1.8,Calm,Calm,-,0.00,,Overcast,0,2012-12-26 09:43:00
12:45 AM,6.8,3.2,85,29.63,3.0,North,3.5,-,0.00,,Overcast,10,2012-12-26 09:45:00
12:53 AM,6.1,3.0,87,29.64,10.0,NNE,3.5,-,0.00,,Overcast,30,2012-12-26 09:53:00
1:18 AM,6.8,3.2,85,29.63,10.0,Calm,Calm,-,N/A,,Overcast,0,2012-12-26 10:18:00
1:31 AM,8.6,6.8,92,29.62,10.0,North,3.5,-,N/A,,Overcast,10,2012-12-26 10:31:00
1:53 AM,12.9,10.9,92,29.63,9.0,NNE,3.5,-,0.00,Snow,Light Snow,20,2012-12-26 10:53:00
2:20 AM,17.6,15.8,93,29.61,1.8,North,3.5,-,0.00,Snow,Light Snow,10,2012-12-26 11:20:00
2:45 AM,19.4,17.6,93,29.61,0.8,North,3.5,-,0.00,,Mist,360,2012-12-26 11:45:00
2:58 AM,19.4,17.6,93,29.60,3.0,North,3.5,-,N/A,,Overcast,360,2012-12-26 11:58:00
3:24 AM,21.2,19.4,93,29.60,9.0,NNE,10.4,-,0.00,Snow,Light Snow,20,2012-12-26 12:24:00
3:53 AM,21.0,19.0,92,29.60,10.0,NE,6.9,-,0.00,,Overcast,40,2012-12-26 12:53:00
4:15 AM,19.4,19.4,100,29.58,10.0,NNE,6.9,-,N/A,,Overcast,30,2012-12-26 13:15:00
4:24 AM,19.4,17.6,93,29.57,10.0,NNE,5.8,-,N/A,,Overcast,20,2012-12-26 13:24:00
4:53 AM,23.0,21.9,96,29.57,10.0,North,10.4,-,N/A,,Overcast,10,2012-12-26 13:53:00
5:53 AM,24.1,21.9,91,29.56,10.0,NE,11.5,-,N/A,,Overcast,40,2012-12-26 14:53:00
6:53 AM,24.1,23.0,96,29.53,10.0,NNE,9.2,-,N/A,,Overcast,30,2012-12-26 15:53:00
7:53 AM,26.1,24.1,92,29.50,10.0,NNE,13.8,-,N/A,,Scattered Clouds,20,2012-12-26 16:53:00
8:53 AM,26.1,24.1,92,29.48,10.0,NNE,19.6,-,N/A,,Overcast,30,2012-12-26 17:53:00
9:53 AM,26.1,24.1,92,29.46,10.0,NNE,19.6,-,N/A,,Overcast,30,2012-12-26 18:53:00
10:53 AM,27.0,24.1,89,29.45,10.0,NNE,21.9,-,N/A,,Partly Cloudy,30,2012-12-26 19:53:00
11:53 AM,27.0,24.1,89,29.44,10.0,NNE,18.4,-,N/A,,Mostly Cloudy,30,2012-12-26 20:53:00
12:53 PM,28.0,25.0,88,29.42,10.0,NNE,19.6,-,N/A,,Overcast,30,2012-12-26 21:53:00
1:53 PM,28.9,25.0,85,29.40,10.0,NNE,20.7,-,N/A,,Overcast,20,2012-12-26 22:53:00
2:53 PM,28.9,25.0,85,29.38,10.0,NNE,21.9,-,N/A,,Overcast,20,2012-12-26 23:53:00
3:53 PM,30.0,26.1,85,29.36,10.0,NNE,20.7,-,N/A,,Overcast,30,2012-12-27 00:53:00
4:53 PM,28.9,25.0,85,29.33,10.0,NNE,23.0,-,N/A,,Overcast,20,2012-12-27 01:53:00
5:53 PM,30.0,26.1,85,29.32,10.0,NNE,21.9,-,N/A,,Clear,20,2012-12-27 02:53:00
6:53 PM,30.0,26.1,85,29.31,10.0,NNE,23.0,-,N/A,,Clear,20,2012-12-27 03:53:00
7:53 PM,30.0,26.1,85,29.30,10.0,NNE,18.4,-,N/A,,Partly Cloudy,20,2012-12-27 04:53:00
8:53 PM,30.0,26.1,85,29.29,10.0,NNE,19.6,29.9,N/A,,Partly Cloudy,20,2012-12-27 05:53:00
9:53 PM,30.0,25.0,82,29.30,10.0,North,15.0,-,N/A,,Overcast,10,2012-12-27 06:53:00
10:53 PM,30.9,27.0,85,29.28,10.0,NNE,24.2,-,N/A,,Overcast,30,2012-12-27 07:53:00
11:53 PM,30.9,26.1,82,29.27,8.0,NNE,29.9,-,N/A,,Overcast,30,2012-12-27 08:53:00